Regional Weather Roundup
Issued by NWS

Home | Current Version | Previous Version | Text Only | Print | Product List | Glossary Off
Versions: 1 2 3 4 5 6 7 8 9 10 11 12 13 14 15 16 17 18 19 20 21 22 23 24 25 26 27 28

000
ASUS45 KCYS 150510
RWRWY

WYOMING REGIONAL WEATHER ROUNDUP
NATIONAL WEATHER SERVICE CHEYENNE WY
1000 PM MST SUN JAN 14 2018

NOTE:  "FAIR" INDICATES FEW OR NO CLOUDS BELOW 12,000 FEET
WITH NO SIGNIFICANT WEATHER AND/OR OBSTRUCTIONS TO VISIBILITY.

WYZ001-150600-
YELLOWSTONE NATIONAL PARK

CITY           SKY/WX    TMP DP  RH WIND       PRES   REMARKS
LK YELLOWSTONE   N/A     24  22  91 CALM      30.36R
W YELLOWSTONE  NOT AVBL

$$
WYZ002>013-054>058-071-098>099-150600-
NORTHERN WYOMING

CITY           SKY/WX    TMP DP  RH WIND       PRES   REMARKS
JACKSON        FAIR      11  10  96 NE6       30.36S WCI   1
CODY           FLURRIES  29  26  89 N16       30.35R WCI  17
GREYBULL       CLOUDY    30  24  78 NW18      30.32R WCI  18
WORLAND        CLOUDY    32  27  81 W9        30.32R WCI  24
SHERIDAN       LGT SNOW  22  19  89 NW21      30.44R FOG     WCI   6
BUFFALO        LGT SNOW  21  16  81 N21G26    30.34S WCI   5
GILLETTE       MIX PCPN  14  11  87 N14       30.37R FOG     WCI  -1
HULETT         LGT SNOW  10   5  79 MISG      30.39R
NEWCASTLE      FAIR      18   5  57 NW16      30.33R WCI   3

$$
WYZ014>020-022>026-101>103-150600-
CENTRAL WYOMING

CITY           SKY/WX    TMP DP  RH WIND       PRES   REMARKS
BIG PINEY      FAIR      23  17  78 N13       30.28F WCI  11
PINEDALE       FAIR      25  19  80 W16       30.27S WCI  12
DUBOIS         NOT AVBL
LANDER         FAIR      25  17  72 NW7       30.27R WCI  17
RIVERTON       MOCLDY    29  19  66 NE12      30.26R WCI  19
CASPER         CLOUDY    29  25  85 NE12      30.30R WCI  19
DOUGLAS        LGT SNOW  26  24  92 N14       30.31R FOG     WCI  14

$$
WYZ021-027>030-104>119-150600-
SOUTHERN WYOMING

CITY           SKY/WX    TMP DP  RH WIND       PRES   REMARKS
EVANSTON       FAIR      29  25  85 N6        30.34S WCI  23
FORT BRIDGER   CLEAR     30  25  80 W13       30.33F WCI  20
ROCK SPRINGS   FAIR      30  23  75 SW17      30.28S WCI  18
DIXON            N/A     25  22  86 E3        30.32R
RAWLINS        FAIR      33  22  63 W15       30.22F WCI  23
SARATOGA       FAIR      28  21  74 E9        30.23F WCI  20
LARAMIE        FAIR      28  20  71 N8        30.19S WCI  20
CHEYENNE       MOCLDY    29  25  85 N21G28    30.20R WCI  16
TORRINGTON     LGT SNOW  26  25  96 N15       30.29R FOG     WCI  14

$$




USA.gov is the U.S. government's official web portal to all federal, state and local government web resources and services.